Regional Weather Roundup
Issued by NWS Wakefield, VA

Home | Current Version | Previous Version | Text Only | Print | Product List | Glossary On
Versions: 1 2 3 4 5 6 7 8 9 10 11 12 13 14 15 16 17 18 19 20 21 22 23 24 25 26 27 28
000
ASUS41 KAKQ 280615
RWRAKQ

REGIONAL WEATHER ROUNDUP
NATIONAL WEATHER SERVICE WAKEFIELD VA
200 AM EDT TUE MAR 28 2017

Note: "fair" indicates few or no clouds below 12,000 feet with no
significant weather and/or obstructions to visibility. * = Denotes
station may not report precipitation (e.g., rain,snow,etc.),
thunder or fog.

VAZ042-051-052>054-056-280700-
NORTHERN VIRGINIA

CITY           SKY/WX    TMP DP  RH WIND       PRES   REMARKS
WASH NATIONAL  CLOUDY    57  55  93 CALM      29.89F
DULLES         CLOUDY    57  55  93 CALM      29.88F
FORT BELVOIR   MOCLDY    58  54  85 CALM      29.88F
QUANTICO       CLOUDY    61  56  83 SW7       29.90F
FREDERICKSBRG* CLOUDY    66  59  76 S7        29.89S
STAFFORD*      CLOUDY    65  58  78 S3        29.93F
WARRENTON      NOT AVBL
CULPEPER*      MOCLDY    60  57  88 S3        29.90F
MANASSAS*        N/A    N/A N/A N/A CALM      29.89F
LEESBURG*      CLOUDY    59  59 100 CALM      29.89F
WINCHESTER     MOCLDY    55  54  94 CALM      29.88F
FRONT ROYAL*   CLOUDY    59  55  88 S5        29.87F
LURAY*         MOCLDY    55  55 100 CALM      29.89F
$$

VAZ048-049-060>072-079>083-280700-
CENTRAL AND SOUTH CENTRAL VIRGINIA

CITY           SKY/WX    TMP DP  RH WIND       PRES   REMARKS
RICHMOND       CLOUDY    65  56  72 S12       29.93F
CHESTERFIELD*  FAIR     N/A N/A N/A S8        29.94F
PETERSBURG*    CLOUDY    61  55  79 CALM      29.95F
HANOVER        CLOUDY    66  54  65 S8        29.94F
TAPPAHANNOCK*  CLOUDY    66  49  53 S9        29.93F
QUINTON*       FAIR      66  57  72 SE7       29.93F
CHARLOTTSVILLE CLOUDY    62  56  80 S6        29.89F
GORDONSVILLE*  PTCLDY    56  54  95 CALM      29.90F
ORANGE*        MOCLDY    55  54  94 CALM      29.91F
LOUISA*        CLOUDY    70  61  73 S5        29.89F
BUMPASS*       FAIR      64  58  80 SW7       29.90F
FARMVILLE*     MOCLDY    65  59  81 S3        29.90F
CREWE*         FAIR      64  60  87 S7        29.92F
FORT PICKETT*  FAIR      64  53  69 S10G22    29.94S
CHASE CITY*    FAIR      65  56  74 S3        29.94F
CLARKSVILLE*   FAIR      64  55  72 S8        29.94F
SOUTH HILL*    CLEAR     63  56  79 S7        30.01S
LAWRENCEVILLE* FAIR      63  55  75 S6        29.95F
EMPORIA*       PTCLDY    61  54  77 SE3       29.97F
$$

VAZ088>098-280700-
SOUTHEAST VIRGINIA

CITY           SKY/WX    TMP DP  RH WIND       PRES   REMARKS
NORFOLK        PTCLDY    63  53  70 SW12      29.96F
VIRGINIA BEACH MOCLDY    63  52  67 SW9       29.96F
NORFOLK NAVAL  MOCLDY    66  52  60 SW9       29.97F
WEST POINT*    CLOUDY    66  54  63 S9        29.95F
SALUDA*        FAIR      65  56  72 SW6       29.93F
NEWPORT NEWS   PTCLDY    62  53  72 SW8       29.96S
LANGLEY AFB    MOCLDY    65  54  69 SW10      29.95F
FORT EUSTIS    MOCLDY    63  54  71 S6        29.93F
WILLIAMSBURG*  MOCLDY    66  55  68 SW3       29.96S
HR EXEC AP*    FAIR      63  52  67 SW9       29.95F
FRANKLIN*      CLEAR     62  53  72 S6        29.97F
US460-WAKEFLD  PTCLDY    64  55  72 VRB5      29.96S
$$

VAZ020-022-025-037-045-280700-
WEST CENTRAL AND SOUTHWEST VIRGINIA

CITY           SKY/WX    TMP DP  RH WIND       PRES   REMARKS
STAUNTON*      CLOUDY    52  51  98 CALM      29.92F FOG
WAYNESBORO*    MOCLDY    60  58  92 S3        29.91F
HOT SPRINGS VA LGT RAIN  57  46  67 SW15      29.98F
LYNCHBURG      MOCLDY    60  57  89 S7        29.92F
DANVILLE       CLOUDY    65  59  81 S7        29.93F
SOUTH BOSTON*  FAIR      65  56  71 S6        29.93F
MARTINSVILLE   FOG       53  52  97 CALM      29.96S VSB 1/2
ROANOKE        PTCLDY    63  54  72 E5        29.92F
BLACKSBURG     CLOUDY    55  51  89 W3        29.97S
DUBLIN*        LGT RAIN  55  53  93 W9G17     29.98R
MARION*        CLOUDY    56  55  95 W7        29.99F
HILLSVILLE*    CLOUDY    58  54  86 W9        29.97R
RICHLANDS*     CLOUDY    55  52  90 SW7       29.96F
WISE*          LGT RAIN  54  54 100 SW12      29.96F
ABINGDON*      CLOUDY    57  56  97 N3        29.96S
$$

MDZ021>025-VAZ099-100-280700-
SOUTHERN MARYLAND AND THE DELMARVA PENINSULA

CITY           SKY/WX    TMP DP  RH WIND       PRES   REMARKS
PATUXENT RIVER CLOUDY    65  57  75 SW13      29.91F
BAY BRIDGE APT MOCLDY    59  54  82 S8        29.90S
LEONARDTOWN    CLOUDY    64  54  68 S3        29.92F
DOVER          CLOUDY    62  61  99 S10       29.90F
GEORGETOWN     CLOUDY    60  53  77 S7        29.93F
EASTON         CLOUDY    62  54  74 S6        29.95S
CAMBRIDGE      CLEAR     57  54  88 S6        29.92F
SALISBURY      CLOUDY    58  54  86 S3        29.93F
OCEAN CITY     CLOUDY    56  51  84 SW6       29.95F
WALLOPS ISLAND CLOUDY    53  51  93 S10       29.96F
ACCOMACK*      CLOUDY    59  52  79 S8        29.95F
$$

NCZ012>017-030>032-280700-
NORTH CENTRAL AND EASTERN NORTH CAROLINA

CITY           SKY/WX    TMP DP  RH WIND       PRES   REMARKS
ROANOKE RAPIDS FAIR      61  54  77 S6        29.97S
RALEIGH        CLOUDY    66  54  65 S9        29.97F
ELIZABETH CITY CLOUDY    61  54  77 S9        29.99F
AHOSKIE*         N/A     61  54  77 CALM      29.97F
EDENTON*       CLOUDY    60  54  83 CALM      30.00S
CURRITUCK*     CLOUDY    62  54  74 S3        29.99F
KILL DEVIL HLS NOT AVBL
MANTEO         CLOUDY    58  56  92 SW7       30.01F
CAPE HATTERAS  CLEAR     69  58  67 SW8       30.01F
TARBORO*       NOT AVBL
GOLDSBORO      MOCLDY    65  60  85 SW7       29.98F
WASHINGTON     CLOUDY    63  55  77 S5        30.00F
GREENVILLE     CLOUDY    63  55  77 S5        30.00F
NEW BERN       CLOUDY    61  58  90 S8        30.00F
WILMINGTON     CLOUDY    66  58  75 S8        30.01F
$$

VAZ048-280700-
ELSEWHERE

CITY           SKY/WX    TMP DP  RH WIND       PRES   REMARKS
HARRISBURG PA  CLOUDY    49  49 100 NW3       29.91F FOG
BALTIMORE      CLOUDY    55  54  96 CALM      29.89F
ANNAPOLIS      MOCLDY    58  53  84 S6        29.90S
ANDREWS AFB    CLOUDY    64  56  77 S7        29.88F
PHILADELPHIA   CLOUDY    52  50  93 NE6       29.94F FOG
HENDERSON NC   CLOUDY    62  53  72 S8        29.95F
GREENSBORO     MOCLDY    64  60  87 S12       29.94S
ROCKY MOUNT    CLEAR     63  56  78 S7        29.98F
$$

VAZ100-280700-
MARINE

STATION/POSITION TIME  TEMP    WIND        PRES    WAVE   SWELL
                       AIR SEA DIR/SP/G            HT/PER HT/PER
                 (UTC) (F)     (DEG/KT/KT) (MB)    (FT/S) (FT/S)
CAPE MAY NJ      0542   53 46  160/  8/ 11 1013.2F
LEWES DE         0542   62 46  200/  6/  8 1013.4F
OCEAN-CITY-INLET 0548   48 45  210/  7/  8 1014.6F
WACHAPREAGUE VA  0548   56 58  220/  5/  7 1013.9F
THOMAS POINT MD  0600   53 46  180/  9/ 10   N/A
GOOSES REEF MD   0550   53     160/ 10/ 10 1013.2F
COVE POINT MD    0548   56     190/ 10/ 11 1013.4F
SOLOMONS ISLAND  0548   62 48  200/ 13/ 15   N/A
BISHOPS HEAD MD  0548   56 55  180/ 10/ 12 1013.7F
PINEY POINT MD   0548          220/ 10/ 11   N/A
POTOMAC MD       0550   55     210/  4/  6 1012.3F
CAMBRIDGE MD     0548   60 47  170/  5/  7 1012.4F
LEWISETTA VA     0548   66 53  220/ 12/ 15 1012.8F
RAPPAHANNOCK LGT 0548          180/ 16/ 17 1014.6F
STINGRAY PT      0550   57     230/  6/  8 1014.3F
YORK RVR RNG VA  0548   63     220/ 13/ 15 1013.4F
YORKTOWN VA      0548   66 51  220/  8/ 12 1013.8F
JAMESTOWN VA     0550   65     210/ 10/ 14   N/A
DOMINION TERM VA 0548   59     210/  8/  9 1014.4F
KIPTOPEKE VA     0548      51  160/  6/  7   N/A
CHES BAY BRIDGE  0548   63 50  220/ 13/ 16 1014.3F
CAPE HENRY VA    0548   64     210/  8/ 13   N/A
WILLOUBY STN VA  0548   65     210/ 14/ 16 1015.2F
S CRANEY ISL VA  0548   63     200/  8/ 10 1014.4F
CAPE HENRY BUOY  0542      51                N/A     3/10   2/11
CAPE CHARLES BUO 0551      49                N/A     3/ 8   2/11
OFFSHORE WE BUOY 0551      51                N/A     3/11   2/11
64NM E OF VA BCH 0550   54 49  210/ 10/ 10 1015.6F   4/ 7   3/ 7
DUCK PIER NC     0548   62 48  200/ 10/ 12 1015.1F
44100 DUCK FRF   0535      51                N/A     4/10   2/11
44056 DUCK FRF   0530      50                N/A     3/ 9   2/11
OREGON INLET NC  0548          210/  9/ 10   N/A
HATTERAS NC      0548   65 62  210/  5/  9 1016.0F
DIAMOND SHLS NC  0550   71 74  190/ 17/ 21 1016.2F   5/10   3/10
CAPE LOOKOUT NC  0500   66     180/  8/  9 1016.5F
$$




USA.gov is the U.S. government's official web portal to all federal, state and local government web resources and services.